Location: Dackenheim
(49.5215°N, 8.1854°E)
Time: 02:46:10
(UTC+00:00)

UWE-3 - Pass Details

Date: 18 March 2026
Orbit: 543 x 612 km, 97.9° (Epoch: 12 April)

Event Time Altitude Azimuth Distance (km) Brightness Sun altitude
Rises 04:14:04 0° 355° (N) 2,887 ? -13.8°
Reaches altitude 10° 04:18:29 10° 312° (NW) 1,963 ? -13.1°
Maximum altitude 04:18:56 10° 306° (NW) 1,950 ? -13.0°
Enters shadow 04:19:17 10° 301° (WNW) 1,955 ? -13.0°
